www.pogodaiklimat.ru

Погода и климат >> Архив погоды >> Индия >> Guna


ПОГОДА в Guna

  • Прогноз погоды в Guna
  • Монитор погоды в Guna
  • Климат города

АРХИВ ПОГОДЫ в Guna

Время (UTC), дата Ветер
(напр.,м/с)
 
Видим.   Явления Облачность Т
(С)
Тd
(С)
f
(%)
Тe
(С)
Тes
(С)
Комфортность P
(гПа)
Po
(гПа)
Тmin
(С)
Tmax
(С)
R
(мм)
R24
(мм)
S
(см)
12 17.01 штиль 0 4000 м ясно +26.0 +7.1 30 +26 +26 жарко 1011.0 1011.0 +30.0
15 17.01 штиль 0 4000 м ясно +19.6 +7.0 44 +20 +20 1014.0 1014.0
18 17.01 штиль 0 4000 м ясно +17.0 +4.9 45 +17 +17 1014.6 1015.0
21 17.01 штиль 0 2000 м мгла ясно +15.0 +6.8 58 +15 +15 1013.9 1014.0
00 18.01 штиль 0 2000 м мгла ясно +13.4 +5.3 58 +13 +13 1013.9 1014.0
03 18.01 штиль 0 2000 м мгла ясно +14.6 +1.9 42 +15 +17 1015.8 1016.0 +12.4
06 18.01 штиль 0 4000 м ясно +26.6 +5.2 25 +26 +40 жарко 1014.7 1015.0
09 18.01 штиль 0 4000 м ясно +28.6 +8.6 29 +28 +38 жарко 1011.7 1012.0
12 18.01 штиль 0 4000 м ясно +27.2 +10.6 35 +28 +28 жарко 1010.9 1011.0 +30.6
15 18.01 штиль 0 4000 м ясно +19.4 +10.6 57 +20 +20 1014.2 1014.0
18 18.01 штиль 0 4000 м ясно +16.6 +9.8 64 +17 +17 1014.8 1015.0
21 18.01 штиль 0 2000 м мгла ясно +15.0 +9.2 68 +15 +15 1014.4 1014.0
00 19.01 штиль 0 2000 м мгла ясно +13.8 +8.7 71 +14 +14 1014.7 1015.0
03 19.01 штиль 0 2000 м мгла ясно +15.0 +9.2 68 +15 +18 1016.5 1017.0 +12.6
06 19.01 штиль 0 4000 м ясно +27.8 +7.9 28 +27 +42 жарко 1014.8 1015.0
09 19.01 штиль 0 4000 м ясно +28.8 +8.4 28 +28 +38 жарко 1012.0 1012.0
12 19.01 штиль 0 4000 м ясно +26.8 +11.0 37 +28 +28 жарко 1011.8 1012.0 +30.6
15 19.01 штиль 0 4000 м ясно +20.0 +10.9 56 +21 +21 комфорт 1014.9 1015.0
18 19.01 штиль 0 4000 м ясно +17.4 +8.0 54 +17 +17 1015.0 1015.0
21 19.01 штиль 0 2000 м мгла ясно +15.0 +8.7 66 +15 +15 1015.0 1015.0
00 20.01 штиль 0 2000 м мгла ясно +13.8 +8.7 71 +14 +14 1015.1 1015.0
03 20.01 С 1 2000 м мгла ясно +15.0 +6.8 58 +16 +18 1016.1 1016.0 +11.8
06 20.01 З 1 4000 м ясно +23.2 +10.1 43 +25 +37 комфорт 1015.3 1015.0
09 20.01 З 1 4000 м ясно +27.6 +5.1 24 +27 +35 жарко 1011.3 1011.0
12 20.01 З 1 4000 м ясно +26.2 +8.5 33 +26 +27 жарко 1010.7 1011.0 +29.2
15 20.01 штиль 0 4000 м ясно +18.0 +10.1 60 +18 +18 1013.1 1013.0
18 20.01 штиль 0 4000 м ясно +14.6 +7.8 64 +14 +14 1014.0 1014.0
21 20.01 штиль 0 2000 м мгла ясно +13.2 +8.0 71 +13 +13 1013.5 1014.0
00 21.01 штиль 0 2000 м мгла ясно +12.2 +7.7 74 +12 +12 1014.0 1014.0
03 21.01 штиль 0 2000 м мгла ясно +13.6 +6.1 60 +13 +16 1015.4 1015.0 +10.0
06 21.01 В 2 4000 м ясно +24.4 +6.7 32 +24 +36 комфорт 1013.9 1014.0
09 21.01 штиль 0 4000 м ясно +26.4 +6.6 28 +26 +36 жарко 1010.1 1010.0
12 21.01 В 1 4000 м ясно +25.0 +9.3 37 +26 +26 жарко 1010.2 1010.0 +27.8
15 21.01 штиль 0 4000 м ясно +18.8 +8.9 53 +19 +19 1013.0 1013.0
18 21.01 штиль 0 4000 м ясно +15.8 +8.3 61 +16 +16 1013.2 1013.0
21 21.01 штиль 0 2000 м мгла ясно +14.4 +8.0 65 +14 +14 1012.7 1013.0
00 22.01 штиль 0 2000 м мгла ясно +12.2 +7.7 74 +12 +12 1013.4 1013.0
03 22.01 ЮВ 2 2000 м мгла ясно +14.0 +6.6 61 +14 +16 1013.4 1013.0 +11.6
06 22.01 В 1 4000 м ясно +25.6 +9.2 35 +26 +39 жарко 1012.4 1012.0
09 22.01 В 1 4000 м ясно +27.4 +8.9 31 +27 +36 жарко 1008.3 1008.0
12 22.01 В 1 4000 м ясно +26.2 +9.6 35 +27 +27 жарко 1008.2 1008.0 +28.4
15 22.01 В 1 4000 м ясно +19.6 +8.5 49 +22 +22 комфорт 1010.7 1011.0
18 22.01 В 1 4000 м ясно +18.0 +7.3 50 +19 +19 1010.7 1011.0
21 22.01 В 1 2000 м мгла ясно +16.4 +7.2 54 +17 +17 1010.1 1010.0
00 23.01 В 1 2000 м мгла ясно +14.8 +7.1 60 +15 +15 1010.9 1011.0
03 23.01 ЮВ 2 4000 м 5/0
[Ac trans]
+16.0 +5.6 50 +16 +18 1010.1 1010.0 +13.8
06 23.01 Ю 2 4000 м 5/0
[Ac trans]
+24.4 +8.4 36 +25 +33 комфорт 1008.8 1009.0
09 23.01 Ю 2 4000 м 5/0
[Ac trans]
+25.8 +10.5 38 +27 +32 жарко 1006.4 1006.0
12 23.01 Ю 1 4000 м 5/0
[Ac trans]
+24.0 +9.3 39 +25 +25 комфорт 1006.6 1007.0 +26.8
15 23.01 штиль 0 4000 м 3/0
[Ac trans]
+18.0 +10.6 62 +18 +18 1009.6 1010.0
18 23.01 штиль 0 4000 м 3/0
[Ac trans]
+15.4 +10.5 73 +15 +15 1010.8 1010.8
21 23.01 штиль 0 4000 м ясно +13.0 +9.1 77 +13 +13 1011.2 1011.0
00 24.01 штиль 0 4000 м ясно +11.0 +7.7 80 +10 +10 1011.9 1012.0
03 24.01 штиль 0 2000 м мгла ясно +12.0 +7.9 76 +12 +15 1014.2 1014.0 +10.5
06 24.01 СЗ 2 4000 м ясно +21.4 +2.9 30 +21 +33 комфорт 1013.2 1013.0
09 24.01 СЗ 2 4000 м ясно +23.0 +1.8 25 +22 +31 комфорт 1010.2 1010.0

 

Местоположение метеостанции Guna (Madhya Pradesh, Индия): широта 24.65 долгота 77.32 высота над уровнем моря 478 м.

В архиве по умолчанию представлена погода в Guna за последнюю неделю. Архивные данные за месяц целиком и за предыдущие месяцы, начиная с января 2011 года, Вы можете получить, выбрав интересующий диапазон дат из раскрывающегося списка и нажав кнопку "Ввод!".

Внимание! Время в таблицах - всемирное. Для получения местного времени необходимо прибавить поправку, которая в Guna равна 5.5 ч.

Смотрите также архив погоды в соседних городах и на ближайших метеорологических станциях:

Погода в Shivpuri (Madhya Pradesh, Индия) (83 км)
Погода в Rajgarh (Madhya Pradesh, Индия) (94 км)
Погода в Sheopur (Madhya Pradesh, Индия) (130 км)
Погода в Bhopal (Madhya Pradesh, Индия) (152 км)
Погода в Tikamgarh (Madhya Pradesh, Индия) (153 км)
Погода в Raisen (Madhya Pradesh, Индия) (157 км)
Погода в Jhansi (Uttar Pradesh, Индия) (158 км)
Погода в Kota (Rajasthan, Индия) (158 км)
Погода в Shajapur (Madhya Pradesh, Индия) (170 км)
Погода в Sagar (Madhya Pradesh, Индия) (170 км)

Пояснения к столбцам:

Ветер - указаны скорость ветра в м/с - средняя за 10 мин, порывы в срок и между сроками (в фигурных скобках) и направление, откуда дует ветер: С - северный, СВ - северо-восточный, В - восточный, ЮВ - юго-восточный, Ю - южный, ЮЗ - юго-западный, З - западный, СЗ - северо-западный.
Видимость - горизонтальная дальность видимости в метрах или километрах. При видимости от 1 до 10 км при отсутствии осадков обычно наблюдается дымка, при ухудшении видимости до 1 км и менее - туман. В сухую погоду видимость может ухудшаться дымом, пылью или мглою.
Явления - указаны атмосферные явления, наблюдавшиеся в срок или в последний час перед сроком; фигурными скобками обозначены явления, наблюдавшиеся между сроками (за 1-3 часа до срока); квадратными скобками обозначены град или гололедные отложения с указанием их диаметра в мм.
Облачность - указаны через наклонную черту общая и нижняя облачность в баллах и высота нижней границы облаков в метрах; квадратными скобками обозначены формы облаков: Ci - перистые, Cs - перисто-слоистые, Cc - перисто-кучевые, Ac - высококучевые, As - высокослоистые, Sc - слоисто-кучевые, Ns - слоисто-дождевые, Cu - кучевые, Cb - кучево-дождевые. Подробнее классификацию облаков см. в Атласе облаков (PDF).
T - Температура воздуха - температура, измеренная на высоте 2 м над землей.
Td - Температура точки росы - температура, при понижении до которой содержащийся в воздухе водяной пар достигнет насыщения.
f - Относительная влажность воздуха - влажноcть воздуха, измеренная на высоте 2 м над землей.
Te - Эффективная температура - температура, которую ощущает одетый по сезону человек в тени. Характеристика душности погоды. При расчете учитывается влияние влажности воздуха и скорости ветра на теплоощущения человека.
Tes - Эффективная температура на солнце - температура, которую ощущает человек, с поправкой на солнечный нагрев. Характеристика знойности погоды. Зависит от высоты солнца над горизонтом, облачности и скорости ветра. Ночью, в пасмурную погоду, а также при ветре 12 м/с и более поправка равна нулю.
P - Атмосферное давление - приведенное к уровню моря атмосферное давление.
Po - Атмосферное давление - измеренное на уровне метеостанции атмосферное давление.
Tmin - Минимальная температура - минимум температуры воздуха на высоте 2 м над землей.
Tmax - Максимальная температура - максимум температуры воздуха на высоте 2 м над землей.
R - Количество осадков - Количество выпавших осадков за период времени, мм. При наведении курсора мыши на число - период времени, за который выпало указанное количество осадков.
R24 - Количество осадков - Количество выпавших осадков за 24 часа, мм.
S - Снежный покров - Высота снежного покрова, см. При наведении курсора мыши на число - состояние снежного покрова и степень покрытия местности в баллах.